Time,TemperatureF,DewpointF,PressureIn,WindDirection,WindDirectionDegrees,WindSpeedMPH,WindSpeedGustMPH,Humidity,HourlyPrecipIn,Conditions,Clouds,dailyrainin,SoftwareType,DateUTC
2013-07-04 00:02:00,65.5,55.4,29.99,North,-999,-999.0,-999.0,70,-99.99,,,-99.99,meteohub,2013-07-04 05:02:00,
2013-07-04 00:07:00,65.5,55.4,29.99,North,-999,-999.0,-999.0,70,-99.99,,,-99.99,meteohub,2013-07-04 05:07:00,
2013-07-04 00:12:00,65.5,55.4,29.98,North,-999,-999.0,-999.0,70,-99.99,,,-99.99,meteohub,2013-07-04 05:12:00,
2013-07-04 00:17:00,65.7,55.2,29.98,North,-999,-999.0,-999.0,69,-99.99,,,-99.99,meteohub,2013-07-04 05:17:00,
2013-07-04 00:22:00,65.5,55.4,29.98,North,-999,-999.0,-999.0,70,-99.99,,,-99.99,meteohub,2013-07-04 05:22:00,
2013-07-04 00:27:00,65.3,55.2,29.98,North,-999,-999.0,-999.0,70,-99.99,,,-99.99,meteohub,2013-07-04 05:27:00,
2013-07-04 00:32:00,64.6,55.0,29.98,North,-999,-999.0,-999.0,71,-99.99,,,-99.99,meteohub,2013-07-04 05:32:00,
2013-07-04 00:37:00,64.2,55.0,29.98,North,-999,-999.0,-999.0,72,-99.99,,,-99.99,meteohub,2013-07-04 05:37:00,
2013-07-04 00:42:00,64.0,55.2,29.98,North,-999,-999.0,-999.0,73,-99.99,,,-99.99,meteohub,2013-07-04 05:42:00,
2013-07-04 00:47:00,63.7,55.2,29.98,North,-999,-999.0,-999.0,74,-99.99,,,-99.99,meteohub,2013-07-04 05:47:00,
2013-07-04 00:52:00,63.5,55.0,29.98,North,-999,-999.0,-999.0,74,-99.99,,,-99.99,meteohub,2013-07-04 05:52:00,
2013-07-04 00:57:00,63.3,54.9,29.97,North,-999,-999.0,-999.0,74,-99.99,,,-99.99,meteohub,2013-07-04 05:57:00,
2013-07-04 01:02:00,63.1,55.0,29.98,North,-999,-999.0,-999.0,75,-99.99,,,-99.99,meteohub,2013-07-04 06:02:00,
2013-07-04 01:07:00,63.0,54.9,29.97,North,-999,-999.0,-999.0,75,-99.99,,,-99.99,meteohub,2013-07-04 06:07:00,
2013-07-04 01:12:00,63.0,55.2,29.98,North,-999,-999.0,-999.0,76,-99.99,,,-99.99,meteohub,2013-07-04 06:12:00,
2013-07-04 01:17:00,63.0,54.9,29.97,North,-999,-999.0,-999.0,75,-99.99,,,-99.99,meteohub,2013-07-04 06:17:00,
2013-07-04 01:22:00,63.0,54.9,29.97,North,-999,-999.0,-999.0,75,-99.99,,,-99.99,meteohub,2013-07-04 06:22:00,
2013-07-04 01:27:00,63.0,55.2,29.97,North,-999,-999.0,-999.0,76,-99.99,,,-99.99,meteohub,2013-07-04 06:27:00,
2013-07-04 01:32:00,63.1,55.0,29.97,North,-999,-999.0,-999.0,75,-99.99,,,-99.99,meteohub,2013-07-04 06:32:00,
2013-07-04 01:37:00,63.3,55.2,29.98,North,-999,-999.0,-999.0,75,-99.99,,,-99.99,meteohub,2013-07-04 06:37:00,
2013-07-04 01:42:00,63.5,55.4,29.97,North,-999,-999.0,-999.0,75,-99.99,,,-99.99,meteohub,2013-07-04 06:42:00,
2013-07-04 01:47:00,63.5,55.4,29.97,North,-999,-999.0,-999.0,75,-99.99,,,-99.99,meteohub,2013-07-04 06:47:00,
2013-07-04 01:52:00,63.5,55.4,29.97,North,-999,-999.0,-999.0,75,-99.99,,,-99.99,meteohub,2013-07-04 06:52:00,
2013-07-04 01:57:00,63.7,55.2,29.97,North,-999,-999.0,-999.0,74,-99.99,,,-99.99,meteohub,2013-07-04 06:57:00,
2013-07-04 02:02:00,63.7,55.2,29.97,North,-999,-999.0,-999.0,74,-99.99,,,-99.99,meteohub,2013-07-04 07:02:00,
2013-07-04 02:07:00,63.7,55.2,29.96,North,-999,-999.0,-999.0,74,-99.99,,,-99.99,meteohub,2013-07-04 07:07:00,
2013-07-04 02:12:00,63.7,55.2,29.96,North,-999,-999.0,-999.0,74,-99.99,,,-99.99,meteohub,2013-07-04 07:12:00,
2013-07-04 02:17:00,63.7,55.2,29.96,North,-999,-999.0,-999.0,74,-99.99,,,-99.99,meteohub,2013-07-04 07:17:00,
2013-07-04 02:22:00,63.7,55.2,29.96,North,-999,-999.0,-999.0,74,-99.99,,,-99.99,meteohub,2013-07-04 07:22:00,
2013-07-04 02:27:00,63.7,55.2,29.96,North,-999,-999.0,-999.0,74,-99.99,,,-99.99,meteohub,2013-07-04 07:27:00,
2013-07-04 02:32:00,63.5,55.0,29.96,North,-999,-999.0,-999.0,74,-99.99,,,-99.99,meteohub,2013-07-04 07:32:00,
2013-07-04 02:37:00,63.3,54.9,29.96,North,-999,-999.0,-999.0,74,-99.99,,,-99.99,meteohub,2013-07-04 07:37:00,
2013-07-04 02:42:00,63.3,54.9,29.96,North,-999,-999.0,-999.0,74,-99.99,,,-99.99,meteohub,2013-07-04 07:42:00,
2013-07-04 02:47:00,63.3,54.9,29.96,North,-999,-999.0,-999.0,74,-99.99,,,-99.99,meteohub,2013-07-04 07:47:00,
2013-07-04 02:52:00,63.5,55.0,29.96,North,-999,-999.0,-999.0,74,-99.99,,,-99.99,meteohub,2013-07-04 07:52:00,
2013-07-04 02:57:00,63.7,54.9,29.96,North,-999,-999.0,-999.0,73,-99.99,,,-99.99,meteohub,2013-07-04 07:57:00,
2013-07-04 03:02:00,63.9,54.7,29.96,North,-999,-999.0,-999.0,72,-99.99,,,-99.99,meteohub,2013-07-04 08:02:00,
2013-07-04 03:07:00,63.9,54.7,29.96,North,-999,-999.0,-999.0,72,-99.99,,,-99.99,meteohub,2013-07-04 08:07:00,
2013-07-04 03:12:00,64.0,54.9,29.96,North,-999,-999.0,-999.0,72,-99.99,,,-99.99,meteohub,2013-07-04 08:12:00,
2013-07-04 03:17:00,63.9,54.3,29.96,North,-999,-999.0,-999.0,71,-99.99,,,-99.99,meteohub,2013-07-04 08:17:00,
2013-07-04 03:22:00,63.9,54.7,29.97,North,-999,-999.0,-999.0,72,-99.99,,,-99.99,meteohub,2013-07-04 08:22:00,
2013-07-04 03:27:00,63.9,54.7,29.96,North,-999,-999.0,-999.0,72,-99.99,,,-99.99,meteohub,2013-07-04 08:27:00,
2013-07-04 03:32:00,63.7,54.5,29.96,North,-999,-999.0,-999.0,72,-99.99,,,-99.99,meteohub,2013-07-04 08:32:00,
2013-07-04 03:37:00,63.7,54.1,29.96,North,-999,-999.0,-999.0,71,-99.99,,,-99.99,meteohub,2013-07-04 08:37:00,
2013-07-04 03:42:00,63.7,54.5,29.96,North,-999,-999.0,-999.0,72,-99.99,,,-99.99,meteohub,2013-07-04 08:42:00,
2013-07-04 03:47:00,63.5,54.3,29.96,North,-999,-999.0,-999.0,72,-99.99,,,-99.99,meteohub,2013-07-04 08:47:00,
2013-07-04 03:52:00,63.3,54.5,29.96,North,-999,-999.0,-999.0,73,-99.99,,,-99.99,meteohub,2013-07-04 08:52:00,
2013-07-04 03:57:00,63.1,54.3,29.96,North,-999,-999.0,-999.0,73,-99.99,,,-99.99,meteohub,2013-07-04 08:57:00,
2013-07-04 04:02:00,63.0,54.5,29.96,North,-999,-999.0,-999.0,74,-99.99,,,-99.99,meteohub,2013-07-04 09:02:00,
2013-07-04 04:07:00,63.1,55.0,29.96,North,-999,-999.0,-999.0,75,-99.99,,,-99.99,meteohub,2013-07-04 09:07:00,
2013-07-04 04:12:00,63.1,55.0,29.96,North,-999,-999.0,-999.0,75,-99.99,,,-99.99,meteohub,2013-07-04 09:12:00,
2013-07-04 04:17:00,63.0,55.2,29.96,North,-999,-999.0,-999.0,76,-99.99,,,-99.99,meteohub,2013-07-04 09:17:00,
2013-07-04 04:22:00,62.8,55.0,29.96,North,-999,-999.0,-999.0,76,-99.99,,,-99.99,meteohub,2013-07-04 09:22:00,
2013-07-04 04:27:00,62.6,54.9,29.96,North,-999,-999.0,-999.0,76,-99.99,,,-99.99,meteohub,2013-07-04 09:27:00,
2013-07-04 04:32:00,62.4,55.0,29.95,North,-999,-999.0,-999.0,77,-99.99,,,-99.99,meteohub,2013-07-04 09:32:00,
2013-07-04 04:37:00,62.2,54.9,29.96,North,-999,-999.0,-999.0,77,-99.99,,,-99.99,meteohub,2013-07-04 09:37:00,
2013-07-04 04:42:00,62.2,54.9,29.96,North,-999,-999.0,-999.0,77,-99.99,,,-99.99,meteohub,2013-07-04 09:42:00,
2013-07-04 04:47:00,62.1,54.7,29.96,North,-999,-999.0,-999.0,77,-99.99,,,-99.99,meteohub,2013-07-04 09:47:00,
2013-07-04 04:53:00,61.9,54.9,29.96,North,-999,-999.0,-999.0,78,-99.99,,,-99.99,meteohub,2013-07-04 09:53:00,
2013-07-04 04:59:00,61.7,54.9,29.96,North,-999,-999.0,-999.0,78,-99.99,,,-99.99,meteohub,2013-07-04 09:59:00,
2013-07-04 05:05:00,61.3,54.9,29.96,North,-999,-999.0,-999.0,79,-99.99,,,-99.99,meteohub,2013-07-04 10:05:00,
2013-07-04 05:11:00,61.2,54.9,29.96,North,-999,-999.0,-999.0,80,-99.99,,,-99.99,meteohub,2013-07-04 10:11:00,
2013-07-04 05:17:00,61.0,55.0,29.96,North,-999,-999.0,-999.0,81,-99.99,,,-99.99,meteohub,2013-07-04 10:17:00,
2013-07-04 05:22:00,60.8,54.9,29.96,North,-999,-999.0,-999.0,81,-99.99,,,-99.99,meteohub,2013-07-04 10:22:00,
2013-07-04 05:27:00,60.8,54.9,29.96,North,-999,-999.0,-999.0,81,-99.99,,,-99.99,meteohub,2013-07-04 10:27:00,
2013-07-04 05:32:00,61.0,55.4,29.96,North,-999,-999.0,-999.0,82,-99.99,,,-99.99,meteohub,2013-07-04 10:32:00,
2013-07-04 05:37:00,61.0,55.4,29.96,North,-999,-999.0,-999.0,82,-99.99,,,-99.99,meteohub,2013-07-04 10:37:00,
2013-07-04 05:42:00,61.0,55.4,29.97,North,-999,-999.0,-999.0,82,-99.99,,,-99.99,meteohub,2013-07-04 10:42:00,
2013-07-04 05:47:00,61.0,55.4,29.96,North,-999,-999.0,-999.0,82,-99.99,,,-99.99,meteohub,2013-07-04 10:47:00,
2013-07-04 05:52:00,60.8,55.6,29.97,North,-999,-999.0,-999.0,83,-99.99,,,-99.99,meteohub,2013-07-04 10:52:00,
2013-07-04 05:57:00,60.6,55.0,29.97,North,-999,-999.0,-999.0,82,-99.99,,,-99.99,meteohub,2013-07-04 10:57:00,
2013-07-04 06:02:00,60.4,55.2,29.97,North,-999,-999.0,-999.0,83,-99.99,,,-99.99,meteohub,2013-07-04 11:02:00,
2013-07-04 06:07:00,60.4,55.2,29.98,North,-999,-999.0,-999.0,83,-99.99,,,-99.99,meteohub,2013-07-04 11:07:00,
2013-07-04 06:12:00,60.4,55.2,29.98,North,-999,-999.0,-999.0,83,-99.99,,,-99.99,meteohub,2013-07-04 11:12:00,
2013-07-04 06:17:00,60.3,55.4,29.98,North,-999,-999.0,-999.0,84,-99.99,,,-99.99,meteohub,2013-07-04 11:17:00,
2013-07-04 06:22:00,60.4,55.6,29.98,North,-999,-999.0,-999.0,84,-99.99,,,-99.99,meteohub,2013-07-04 11:22:00,
2013-07-04 06:27:00,60.6,55.8,29.98,North,-999,-999.0,-999.0,84,-99.99,,,-99.99,meteohub,2013-07-04 11:27:00,
2013-07-04 06:32:00,61.0,55.8,29.98,North,-999,-999.0,-999.0,83,-99.99,,,-99.99,meteohub,2013-07-04 11:32:00,
2013-07-04 06:37:00,61.9,56.7,29.98,North,-999,-999.0,-999.0,83,-99.99,,,-99.99,meteohub,2013-07-04 11:37:00,
2013-07-04 06:42:00,62.4,56.5,29.98,North,-999,-999.0,-999.0,81,-99.99,,,-99.99,meteohub,2013-07-04 11:42:00,
2013-07-04 06:47:00,63.0,56.7,29.98,North,-999,-999.0,-999.0,80,-99.99,,,-99.99,meteohub,2013-07-04 11:47:00,
2013-07-04 06:52:00,64.0,57.4,29.98,North,-999,-999.0,-999.0,79,-99.99,,,-99.99,meteohub,2013-07-04 11:52:00,
2013-07-04 06:57:00,64.9,57.6,29.98,North,-999,-999.0,-999.0,77,-99.99,,,-99.99,meteohub,2013-07-04 11:57:00,
2013-07-04 07:02:00,65.8,57.7,29.98,North,-999,-999.0,-999.0,75,-99.99,,,-99.99,meteohub,2013-07-04 12:02:00,
2013-07-04 07:07:00,66.4,57.9,29.98,North,-999,-999.0,-999.0,74,-99.99,,,-99.99,meteohub,2013-07-04 12:07:00,
2013-07-04 07:12:00,67.3,58.6,29.99,North,-999,-999.0,-999.0,74,-99.99,,,-99.99,meteohub,2013-07-04 12:12:00,
2013-07-04 07:17:00,68.2,58.8,29.99,North,-999,-999.0,-999.0,72,-99.99,,,-99.99,meteohub,2013-07-04 12:17:00,
2013-07-04 07:22:00,68.5,58.3,29.99,North,-999,-999.0,-999.0,70,-99.99,,,-99.99,meteohub,2013-07-04 12:22:00,
2013-07-04 07:27:00,68.7,58.5,29.99,North,-999,-999.0,-999.0,70,-99.99,,,-99.99,meteohub,2013-07-04 12:27:00,
2013-07-04 07:32:00,69.8,58.3,29.99,North,-999,-999.0,-999.0,67,-99.99,,,-99.99,meteohub,2013-07-04 12:32:00,
2013-07-04 07:37:00,70.2,57.9,29.99,North,-999,-999.0,-999.0,65,-99.99,,,-99.99,meteohub,2013-07-04 12:37:00,
2013-07-04 07:42:00,70.7,57.9,29.99,North,-999,-999.0,-999.0,64,-99.99,,,-99.99,meteohub,2013-07-04 12:42:00,
2013-07-04 07:47:00,70.7,57.6,29.99,North,-999,-999.0,-999.0,63,-99.99,,,-99.99,meteohub,2013-07-04 12:47:00,
2013-07-04 07:52:00,71.1,57.7,29.99,North,-999,-999.0,-999.0,63,-99.99,,,-99.99,meteohub,2013-07-04 12:52:00,
2013-07-04 07:57:00,71.6,57.9,29.99,North,-999,-999.0,-999.0,62,-99.99,,,-99.99,meteohub,2013-07-04 12:57:00,
2013-07-04 08:02:00,71.8,58.1,30.00,North,-999,-999.0,-999.0,62,-99.99,,,-99.99,meteohub,2013-07-04 13:02:00,
2013-07-04 08:07:00,72.1,58.5,30.00,North,-999,-999.0,-999.0,62,-99.99,,,-99.99,meteohub,2013-07-04 13:07:00,
2013-07-04 08:12:00,72.9,58.6,30.00,North,-999,-999.0,-999.0,61,-99.99,,,-99.99,meteohub,2013-07-04 13:12:00,
2013-07-04 08:17:00,73.4,57.7,30.00,North,-999,-999.0,-999.0,58,-99.99,,,-99.99,meteohub,2013-07-04 13:17:00,
2013-07-04 08:22:00,73.9,59.2,30.00,North,-999,-999.0,-999.0,60,-99.99,,,-99.99,meteohub,2013-07-04 13:22:00,
2013-07-04 08:27:00,74.3,58.6,30.00,North,-999,-999.0,-999.0,58,-99.99,,,-99.99,meteohub,2013-07-04 13:27:00,
2013-07-04 08:33:00,75.7,58.5,30.00,North,-999,-999.0,-999.0,55,-99.99,,,-99.99,meteohub,2013-07-04 13:33:00,
2013-07-04 08:39:00,76.1,58.3,30.00,North,-999,-999.0,-999.0,54,-99.99,,,-99.99,meteohub,2013-07-04 13:39:00,
2013-07-04 08:45:00,76.5,58.6,30.00,North,-999,-999.0,-999.0,54,-99.99,,,-99.99,meteohub,2013-07-04 13:45:00,
2013-07-04 08:51:00,76.8,59.0,30.00,North,-999,-999.0,-999.0,54,-99.99,,,-99.99,meteohub,2013-07-04 13:51:00,
2013-07-04 08:57:00,77.5,59.0,30.00,North,-999,-999.0,-999.0,53,-99.99,,,-99.99,meteohub,2013-07-04 13:57:00,
2013-07-04 09:02:00,77.5,59.0,30.00,North,-999,-999.0,-999.0,53,-99.99,,,-99.99,meteohub,2013-07-04 14:02:00,
2013-07-04 09:07:00,77.9,58.8,30.00,North,-999,-999.0,-999.0,52,-99.99,,,-99.99,meteohub,2013-07-04 14:07:00,
2013-07-04 09:12:00,77.7,58.6,30.00,North,-999,-999.0,-999.0,52,-99.99,,,-99.99,meteohub,2013-07-04 14:12:00,
2013-07-04 09:17:00,78.1,59.5,30.00,North,-999,-999.0,-999.0,53,-99.99,,,-99.99,meteohub,2013-07-04 14:17:00,
2013-07-04 09:22:00,79.0,59.9,29.99,North,-999,-999.0,-999.0,52,-99.99,,,-99.99,meteohub,2013-07-04 14:22:00,
2013-07-04 09:27:00,79.3,59.7,30.00,North,-999,-999.0,-999.0,51,-99.99,,,-99.99,meteohub,2013-07-04 14:27:00,
2013-07-04 09:32:00,79.5,59.2,30.00,North,-999,-999.0,-999.0,50,-99.99,,,-99.99,meteohub,2013-07-04 14:32:00,
2013-07-04 09:37:00,79.2,59.0,30.00,North,-999,-999.0,-999.0,50,-99.99,,,-99.99,meteohub,2013-07-04 14:37:00,
2013-07-04 09:42:00,79.9,59.0,30.00,North,-999,-999.0,-999.0,49,-99.99,,,-99.99,meteohub,2013-07-04 14:42:00,
2013-07-04 09:47:00,80.1,59.2,30.00,North,-999,-999.0,-999.0,49,-99.99,,,-99.99,meteohub,2013-07-04 14:47:00,
2013-07-04 09:52:00,80.8,58.6,29.99,North,-999,-999.0,-999.0,47,-99.99,,,-99.99,meteohub,2013-07-04 14:52:00,
2013-07-04 09:57:00,81.0,59.4,29.99,North,-999,-999.0,-999.0,48,-99.99,,,-99.99,meteohub,2013-07-04 14:57:00,
2013-07-04 10:02:00,80.8,58.6,30.00,North,-999,-999.0,-999.0,47,-99.99,,,-99.99,meteohub,2013-07-04 15:02:00,
2013-07-04 10:07:00,81.5,61.0,30.00,North,-999,-999.0,-999.0,50,-99.99,,,-99.99,meteohub,2013-07-04 15:07:00,
2013-07-04 10:12:00,81.5,59.9,29.99,North,-999,-999.0,-999.0,48,-99.99,,,-99.99,meteohub,2013-07-04 15:12:00,
2013-07-04 10:17:00,82.4,59.5,30.00,North,-999,-999.0,-999.0,46,-99.99,,,-99.99,meteohub,2013-07-04 15:17:00,
2013-07-04 10:22:00,82.8,59.2,30.00,North,-999,-999.0,-999.0,45,-99.99,,,-99.99,meteohub,2013-07-04 15:22:00,
2013-07-04 10:27:00,82.8,59.2,30.00,North,-999,-999.0,-999.0,45,-99.99,,,-99.99,meteohub,2013-07-04 15:27:00,
2013-07-04 10:32:00,83.3,59.2,30.00,North,-999,-999.0,-999.0,44,-99.99,,,-99.99,meteohub,2013-07-04 15:32:00,
2013-07-04 10:37:00,83.3,59.2,30.00,North,-999,-999.0,-999.0,44,-99.99,,,-99.99,meteohub,2013-07-04 15:37:00,
2013-07-04 10:42:00,83.8,60.3,30.00,North,-999,-999.0,-999.0,45,-99.99,,,-99.99,meteohub,2013-07-04 15:42:00,
2013-07-04 10:47:00,84.4,60.1,29.99,North,-999,-999.0,-999.0,44,-99.99,,,-99.99,meteohub,2013-07-04 15:47:00,
2013-07-04 10:52:00,84.4,59.4,30.00,North,-999,-999.0,-999.0,43,-99.99,,,-99.99,meteohub,2013-07-04 15:52:00,
2013-07-04 10:57:00,84.4,59.4,29.99,North,-999,-999.0,-999.0,43,-99.99,,,-99.99,meteohub,2013-07-04 15:57:00,
2013-07-04 11:02:00,84.9,59.9,29.99,North,-999,-999.0,-999.0,43,-99.99,,,-99.99,meteohub,2013-07-04 16:02:00,
2013-07-04 11:07:00,85.1,56.7,29.99,North,-999,-999.0,-999.0,38,-99.99,,,-99.99,meteohub,2013-07-04 16:07:00,
2013-07-04 11:12:00,85.8,57.2,29.99,North,-999,-999.0,-999.0,38,-99.99,,,-99.99,meteohub,2013-07-04 16:12:00,
2013-07-04 11:17:00,85.3,56.8,29.99,North,-999,-999.0,-999.0,38,-99.99,,,-99.99,meteohub,2013-07-04 16:17:00,
2013-07-04 11:22:00,86.4,58.5,29.99,North,-999,-999.0,-999.0,39,-99.99,,,-99.99,meteohub,2013-07-04 16:22:00,
2013-07-04 11:27:00,86.4,55.4,29.99,North,-999,-999.0,-999.0,35,-99.99,,,-99.99,meteohub,2013-07-04 16:27:00,
2013-07-04 11:32:00,86.5,56.5,29.99,North,-999,-999.0,-999.0,36,-99.99,,,-99.99,meteohub,2013-07-04 16:32:00,
2013-07-04 11:37:00,86.5,55.6,29.99,North,-999,-999.0,-999.0,35,-99.99,,,-99.99,meteohub,2013-07-04 16:37:00,
2013-07-04 11:42:00,86.7,55.0,29.99,North,-999,-999.0,-999.0,34,-99.99,,,-99.99,meteohub,2013-07-04 16:42:00,
2013-07-04 11:47:00,86.0,54.3,29.99,North,-999,-999.0,-999.0,34,-99.99,,,-99.99,meteohub,2013-07-04 16:47:00,
2013-07-04 11:52:00,86.5,57.2,29.99,North,-999,-999.0,-999.0,37,-99.99,,,-99.99,meteohub,2013-07-04 16:52:00,
2013-07-04 11:57:00,87.6,56.7,29.99,North,-999,-999.0,-999.0,35,-99.99,,,-99.99,meteohub,2013-07-04 16:57:00,
2013-07-04 12:02:00,87.8,54.3,29.99,North,-999,-999.0,-999.0,32,-99.99,,,-99.99,meteohub,2013-07-04 17:02:00,
2013-07-04 12:07:00,87.4,54.0,29.99,North,-999,-999.0,-999.0,32,-99.99,,,-99.99,meteohub,2013-07-04 17:07:00,
2013-07-04 12:12:00,87.4,54.0,29.99,North,-999,-999.0,-999.0,32,-99.99,,,-99.99,meteohub,2013-07-04 17:12:00,
2013-07-04 12:17:00,87.3,53.8,29.99,North,-999,-999.0,-999.0,32,-99.99,,,-99.99,meteohub,2013-07-04 17:17:00,
2013-07-04 12:22:00,87.4,51.3,29.99,North,-999,-999.0,-999.0,29,-99.99,,,-99.99,meteohub,2013-07-04 17:22:00,
2013-07-04 12:27:00,87.3,52.9,29.99,North,-999,-999.0,-999.0,31,-99.99,,,-99.99,meteohub,2013-07-04 17:27:00,
2013-07-04 12:32:00,87.4,54.9,29.99,North,-999,-999.0,-999.0,33,-99.99,,,-99.99,meteohub,2013-07-04 17:32:00,
2013-07-04 12:37:00,86.9,51.8,29.98,North,-999,-999.0,-999.0,30,-99.99,,,-99.99,meteohub,2013-07-04 17:37:00,
2013-07-04 12:42:00,86.9,53.4,29.99,North,-999,-999.0,-999.0,32,-99.99,,,-99.99,meteohub,2013-07-04 17:42:00,
2013-07-04 12:47:00,87.6,55.0,29.98,North,-999,-999.0,-999.0,33,-99.99,,,-99.99,meteohub,2013-07-04 17:47:00,
2013-07-04 12:52:00,87.4,57.2,29.98,North,-999,-999.0,-999.0,36,-99.99,,,-99.99,meteohub,2013-07-04 17:52:00,
2013-07-04 12:57:00,87.8,55.9,29.98,North,-999,-999.0,-999.0,34,-99.99,,,-99.99,meteohub,2013-07-04 17:57:00,
2013-07-04 13:02:00,87.4,56.5,29.98,North,-999,-999.0,-999.0,35,-99.99,,,-99.99,meteohub,2013-07-04 18:02:00,
2013-07-04 13:07:00,87.4,53.1,29.97,North,-999,-999.0,-999.0,31,-99.99,,,-99.99,meteohub,2013-07-04 18:07:00,
2013-07-04 13:12:00,87.8,54.3,29.98,North,-999,-999.0,-999.0,32,-99.99,,,-99.99,meteohub,2013-07-04 18:12:00,
2013-07-04 13:17:00,88.2,50.0,29.97,North,-999,-999.0,-999.0,27,-99.99,,,-99.99,meteohub,2013-07-04 18:17:00,
2013-07-04 13:22:00,88.7,53.2,29.98,North,-999,-999.0,-999.0,30,-99.99,,,-99.99,meteohub,2013-07-04 18:22:00,
2013-07-04 13:27:00,88.9,51.6,29.97,North,-999,-999.0,-999.0,28,-99.99,,,-99.99,meteohub,2013-07-04 18:27:00,
2013-07-04 13:32:00,88.0,47.8,29.97,North,-999,-999.0,-999.0,25,-99.99,,,-99.99,meteohub,2013-07-04 18:32:00,
2013-07-04 13:37:00,86.7,52.5,29.97,North,-999,-999.0,-999.0,31,-99.99,,,-99.99,meteohub,2013-07-04 18:37:00,
2013-07-04 13:42:00,85.3,52.2,29.97,North,-999,-999.0,-999.0,32,-99.99,,,-99.99,meteohub,2013-07-04 18:42:00,
2013-07-04 13:47:00,86.5,54.9,29.96,North,-999,-999.0,-999.0,34,-99.99,,,-99.99,meteohub,2013-07-04 18:47:00,
2013-07-04 13:52:00,87.6,49.5,29.96,North,-999,-999.0,-999.0,27,-99.99,,,-99.99,meteohub,2013-07-04 18:52:00,
2013-07-04 13:57:00,88.0,48.7,29.96,North,-999,-999.0,-999.0,26,-99.99,,,-99.99,meteohub,2013-07-04 18:57:00,
2013-07-04 14:02:00,88.2,50.0,29.96,North,-999,-999.0,-999.0,27,-99.99,,,-99.99,meteohub,2013-07-04 19:02:00,
2013-07-04 14:07:00,88.9,52.5,29.96,North,-999,-999.0,-999.0,29,-99.99,,,-99.99,meteohub,2013-07-04 19:07:00,
2013-07-04 14:14:00,90.0,49.5,29.96,North,-999,-999.0,-999.0,25,-99.99,,,-99.99,meteohub,2013-07-04 19:14:00,
2013-07-04 14:20:00,89.4,50.0,29.95,North,-999,-999.0,-999.0,26,-99.99,,,-99.99,meteohub,2013-07-04 19:20:00,
2013-07-04 14:27:00,89.4,50.0,29.95,North,-999,-999.0,-999.0,26,-99.99,,,-99.99,meteohub,2013-07-04 19:27:00,
2013-07-04 14:32:00,90.0,52.5,29.95,North,-999,-999.0,-999.0,28,-99.99,,,-99.99,meteohub,2013-07-04 19:32:00,
2013-07-04 14:37:00,89.8,52.3,29.95,North,-999,-999.0,-999.0,28,-99.99,,,-99.99,meteohub,2013-07-04 19:37:00,
2013-07-04 14:42:00,89.2,52.9,29.95,North,-999,-999.0,-999.0,29,-99.99,,,-99.99,meteohub,2013-07-04 19:42:00,
2013-07-04 14:47:00,89.4,54.0,29.95,North,-999,-999.0,-999.0,30,-99.99,,,-99.99,meteohub,2013-07-04 19:47:00,
2013-07-04 14:52:00,89.4,53.1,29.95,North,-999,-999.0,-999.0,29,-99.99,,,-99.99,meteohub,2013-07-04 19:52:00,
2013-07-04 14:57:00,89.1,48.7,29.95,North,-999,-999.0,-999.0,25,-99.99,,,-99.99,meteohub,2013-07-04 19:57:00,
2013-07-04 15:02:00,88.7,52.3,29.95,North,-999,-999.0,-999.0,29,-99.99,,,-99.99,meteohub,2013-07-04 20:02:00,
2013-07-04 15:07:00,88.3,53.1,29.95,North,-999,-999.0,-999.0,30,-99.99,,,-99.99,meteohub,2013-07-04 20:07:00,
2013-07-04 15:12:00,89.4,53.1,29.94,North,-999,-999.0,-999.0,29,-99.99,,,-99.99,meteohub,2013-07-04 20:12:00,
2013-07-04 15:17:00,89.4,53.1,29.94,North,-999,-999.0,-999.0,29,-99.99,,,-99.99,meteohub,2013-07-04 20:17:00,
2013-07-04 15:22:00,90.3,52.9,29.94,North,-999,-999.0,-999.0,28,-99.99,,,-99.99,meteohub,2013-07-04 20:22:00,
2013-07-04 15:27:00,90.3,51.8,29.94,North,-999,-999.0,-999.0,27,-99.99,,,-99.99,meteohub,2013-07-04 20:27:00,
2013-07-04 15:32:00,91.4,49.5,29.94,North,-999,-999.0,-999.0,24,-99.99,,,-99.99,meteohub,2013-07-04 20:32:00,
2013-07-04 15:37:00,92.5,48.0,29.94,North,-999,-999.0,-999.0,22,-99.99,,,-99.99,meteohub,2013-07-04 20:37:00,
2013-07-04 15:42:00,92.5,50.4,29.94,North,-999,-999.0,-999.0,24,-99.99,,,-99.99,meteohub,2013-07-04 20:42:00,
2013-07-04 15:47:00,92.5,49.3,29.94,North,-999,-999.0,-999.0,23,-99.99,,,-99.99,meteohub,2013-07-04 20:47:00,
2013-07-04 15:52:00,91.4,50.7,29.94,North,-999,-999.0,-999.0,25,-99.99,,,-99.99,meteohub,2013-07-04 20:52:00,
2013-07-04 15:57:00,91.2,53.6,29.94,North,-999,-999.0,-999.0,28,-99.99,,,-99.99,meteohub,2013-07-04 20:57:00,
2013-07-04 16:02:00,91.2,51.6,29.94,North,-999,-999.0,-999.0,26,-99.99,,,-99.99,meteohub,2013-07-04 21:02:00,
2013-07-04 16:07:00,91.0,52.3,29.94,North,-999,-999.0,-999.0,27,-99.99,,,-99.99,meteohub,2013-07-04 21:07:00,
2013-07-04 16:12:00,90.5,54.0,29.93,North,-999,-999.0,-999.0,29,-99.99,,,-99.99,meteohub,2013-07-04 21:12:00,
2013-07-04 16:17:00,90.7,51.1,29.93,North,-999,-999.0,-999.0,26,-99.99,,,-99.99,meteohub,2013-07-04 21:17:00,
2013-07-04 16:22:00,90.5,52.0,29.93,North,-999,-999.0,-999.0,27,-99.99,,,-99.99,meteohub,2013-07-04 21:22:00,
2013-07-04 16:27:00,91.2,53.6,29.93,North,-999,-999.0,-999.0,28,-99.99,,,-99.99,meteohub,2013-07-04 21:27:00,
2013-07-04 16:32:00,87.8,55.9,29.93,North,-999,-999.0,-999.0,34,-99.99,,,-99.99,meteohub,2013-07-04 21:32:00,
2013-07-04 16:37:00,88.7,56.7,29.93,North,-999,-999.0,-999.0,34,-99.99,,,-99.99,meteohub,2013-07-04 21:37:00,
2013-07-04 16:42:00,90.1,50.5,29.92,North,-999,-999.0,-999.0,26,-99.99,,,-99.99,meteohub,2013-07-04 21:42:00,
2013-07-04 16:47:00,91.2,52.5,29.92,North,-999,-999.0,-999.0,27,-99.99,,,-99.99,meteohub,2013-07-04 21:47:00,
2013-07-04 16:52:00,91.6,48.6,29.92,North,-999,-999.0,-999.0,23,-99.99,,,-99.99,meteohub,2013-07-04 21:52:00,
2013-07-04 16:57:00,92.5,49.3,29.92,North,-999,-999.0,-999.0,23,-99.99,,,-99.99,meteohub,2013-07-04 21:57:00,
2013-07-04 17:02:00,92.7,51.6,29.93,North,-999,-999.0,-999.0,25,-99.99,,,-99.99,meteohub,2013-07-04 22:02:00,
2013-07-04 17:07:00,91.6,50.7,29.92,North,-999,-999.0,-999.0,25,-99.99,,,-99.99,meteohub,2013-07-04 22:07:00,
2013-07-04 17:12:00,91.0,52.3,29.92,North,-999,-999.0,-999.0,27,-99.99,,,-99.99,meteohub,2013-07-04 22:12:00,
2013-07-04 17:17:00,90.9,49.1,29.92,North,-999,-999.0,-999.0,24,-99.99,,,-99.99,meteohub,2013-07-04 22:17:00,
2013-07-04 17:22:00,91.2,52.5,29.91,North,-999,-999.0,-999.0,27,-99.99,,,-99.99,meteohub,2013-07-04 22:22:00,
2013-07-04 17:27:00,90.5,52.0,29.91,North,-999,-999.0,-999.0,27,-99.99,,,-99.99,meteohub,2013-07-04 22:27:00,
2013-07-04 17:32:00,90.5,49.8,29.91,North,-999,-999.0,-999.0,25,-99.99,,,-99.99,meteohub,2013-07-04 22:32:00,
2013-07-04 17:37:00,90.7,52.2,29.91,North,-999,-999.0,-999.0,27,-99.99,,,-99.99,meteohub,2013-07-04 22:37:00,
2013-07-04 17:42:00,90.5,47.7,29.91,North,-999,-999.0,-999.0,23,-99.99,,,-99.99,meteohub,2013-07-04 22:42:00,
2013-07-04 17:47:00,90.1,50.5,29.91,North,-999,-999.0,-999.0,26,-99.99,,,-99.99,meteohub,2013-07-04 22:47:00,
2013-07-04 17:52:00,89.1,47.7,29.91,North,-999,-999.0,-999.0,24,-99.99,,,-99.99,meteohub,2013-07-04 22:52:00,
2013-07-04 17:57:00,90.0,51.4,29.91,North,-999,-999.0,-999.0,27,-99.99,,,-99.99,meteohub,2013-07-04 22:57:00,
2013-07-04 18:02:00,89.8,53.2,29.91,North,-999,-999.0,-999.0,29,-99.99,,,-99.99,meteohub,2013-07-04 23:02:00,
2013-07-04 18:10:00,90.1,53.6,29.91,North,-999,-999.0,-999.0,29,-99.99,,,-99.99,meteohub,2013-07-04 23:10:00,
2013-07-04 18:16:00,89.8,50.4,29.91,North,-999,-999.0,-999.0,26,-99.99,,,-99.99,meteohub,2013-07-04 23:16:00,
2013-07-04 18:22:00,89.2,51.8,29.91,North,-999,-999.0,-999.0,28,-99.99,,,-99.99,meteohub,2013-07-04 23:22:00,
2013-07-04 18:27:00,89.2,53.8,29.91,North,-999,-999.0,-999.0,30,-99.99,,,-99.99,meteohub,2013-07-04 23:27:00,
2013-07-04 18:32:00,89.2,52.9,29.91,North,-999,-999.0,-999.0,29,-99.99,,,-99.99,meteohub,2013-07-04 23:32:00,
2013-07-04 18:37:00,88.7,54.1,29.91,North,-999,-999.0,-999.0,31,-99.99,,,-99.99,meteohub,2013-07-04 23:37:00,
2013-07-04 18:42:00,88.5,54.0,29.91,North,-999,-999.0,-999.0,31,-99.99,,,-99.99,meteohub,2013-07-04 23:42:00,
2013-07-04 18:47:00,88.7,52.3,29.91,North,-999,-999.0,-999.0,29,-99.99,,,-99.99,meteohub,2013-07-04 23:47:00,
2013-07-04 18:52:00,89.1,51.8,29.90,North,-999,-999.0,-999.0,28,-99.99,,,-99.99,meteohub,2013-07-04 23:52:00,
2013-07-04 18:57:00,88.5,52.2,29.91,North,-999,-999.0,-999.0,29,-99.99,,,-99.99,meteohub,2013-07-04 23:57:00,
2013-07-04 19:02:00,88.2,52.9,29.91,North,-999,-999.0,-999.0,30,-99.99,,,-99.99,meteohub,2013-07-05 00:02:00,
2013-07-04 19:07:00,88.0,53.6,29.91,North,-999,-999.0,-999.0,31,-99.99,,,-99.99,meteohub,2013-07-05 00:07:00,
2013-07-04 19:12:00,86.5,53.2,29.91,North,-999,-999.0,-999.0,32,-99.99,,,-99.99,meteohub,2013-07-05 00:12:00,
2013-07-04 19:17:00,85.1,55.2,29.91,North,-999,-999.0,-999.0,36,-99.99,,,-99.99,meteohub,2013-07-05 00:17:00,
2013-07-04 19:22:00,84.2,55.8,29.90,North,-999,-999.0,-999.0,38,-99.99,,,-99.99,meteohub,2013-07-05 00:22:00,
2013-07-04 19:27:00,83.7,55.4,29.90,North,-999,-999.0,-999.0,38,-99.99,,,-99.99,meteohub,2013-07-05 00:27:00,
2013-07-04 19:32:00,82.8,56.7,29.90,North,-999,-999.0,-999.0,41,-99.99,,,-99.99,meteohub,2013-07-05 00:32:00,
2013-07-04 19:37:00,82.4,57.0,29.90,North,-999,-999.0,-999.0,42,-99.99,,,-99.99,meteohub,2013-07-05 00:37:00,
2013-07-04 19:42:00,82.0,57.4,29.90,North,-999,-999.0,-999.0,43,-99.99,,,-99.99,meteohub,2013-07-05 00:42:00,
2013-07-04 19:47:00,81.7,57.6,29.91,North,-999,-999.0,-999.0,44,-99.99,,,-99.99,meteohub,2013-07-05 00:47:00,
2013-07-04 19:52:00,81.1,57.7,29.91,North,-999,-999.0,-999.0,45,-99.99,,,-99.99,meteohub,2013-07-05 00:52:00,
2013-07-04 19:57:00,80.8,56.8,29.91,North,-999,-999.0,-999.0,44,-99.99,,,-99.99,meteohub,2013-07-05 00:57:00,
2013-07-04 20:02:00,80.4,57.7,29.91,North,-999,-999.0,-999.0,46,-99.99,,,-99.99,meteohub,2013-07-05 01:02:00,
2013-07-04 20:07:00,79.9,57.2,29.91,North,-999,-999.0,-999.0,46,-99.99,,,-99.99,meteohub,2013-07-05 01:07:00,
2013-07-04 20:12:00,79.5,57.6,29.91,North,-999,-999.0,-999.0,47,-99.99,,,-99.99,meteohub,2013-07-05 01:12:00,
2013-07-04 20:17:00,79.2,57.7,29.91,North,-999,-999.0,-999.0,48,-99.99,,,-99.99,meteohub,2013-07-05 01:17:00,
2013-07-04 20:22:00,78.6,57.9,29.91,North,-999,-999.0,-999.0,49,-99.99,,,-99.99,meteohub,2013-07-05 01:22:00,
2013-07-04 20:27:00,78.4,57.7,29.91,North,-999,-999.0,-999.0,49,-99.99,,,-99.99,meteohub,2013-07-05 01:27:00,
2013-07-04 20:32:00,77.7,57.6,29.91,North,-999,-999.0,-999.0,50,-99.99,,,-99.99,meteohub,2013-07-05 01:32:00,
2013-07-04 20:37:00,77.4,58.3,29.91,North,-999,-999.0,-999.0,52,-99.99,,,-99.99,meteohub,2013-07-05 01:37:00,
2013-07-04 20:42:00,77.0,58.1,29.91,North,-999,-999.0,-999.0,52,-99.99,,,-99.99,meteohub,2013-07-05 01:42:00,
2013-07-04 20:47:00,76.5,58.6,29.91,North,-999,-999.0,-999.0,54,-99.99,,,-99.99,meteohub,2013-07-05 01:47:00,
2013-07-04 20:53:00,76.1,58.3,29.91,North,-999,-999.0,-999.0,54,-99.99,,,-99.99,meteohub,2013-07-05 01:53:00,
2013-07-04 20:59:00,75.6,58.3,29.91,North,-999,-999.0,-999.0,55,-99.99,,,-99.99,meteohub,2013-07-05 01:59:00,
2013-07-04 21:05:00,75.4,58.6,29.91,North,-999,-999.0,-999.0,56,-99.99,,,-99.99,meteohub,2013-07-05 02:05:00,
2013-07-04 21:11:00,75.2,58.5,29.91,North,-999,-999.0,-999.0,56,-99.99,,,-99.99,meteohub,2013-07-05 02:11:00,
2013-07-04 21:20:00,74.5,58.8,29.91,North,-999,-999.0,-999.0,58,-99.99,,,-99.99,meteohub,2013-07-05 02:20:00,
2013-07-04 21:26:00,74.5,58.8,29.91,North,-999,-999.0,-999.0,58,-99.99,,,-99.99,meteohub,2013-07-05 02:26:00,
2013-07-04 21:35:00,73.8,59.0,29.92,North,-999,-999.0,-999.0,60,-99.99,,,-99.99,meteohub,2013-07-05 02:35:00,
2013-07-04 21:41:00,73.6,58.8,29.92,North,-999,-999.0,-999.0,60,-99.99,,,-99.99,meteohub,2013-07-05 02:41:00,
2013-07-04 21:50:00,73.2,59.0,29.91,North,-999,-999.0,-999.0,61,-99.99,,,-99.99,meteohub,2013-07-05 02:50:00,
2013-07-04 21:56:00,72.9,59.0,29.92,North,-999,-999.0,-999.0,62,-99.99,,,-99.99,meteohub,2013-07-05 02:56:00,
2013-07-04 22:05:00,72.5,59.2,29.92,North,-999,-999.0,-999.0,63,-99.99,,,-99.99,meteohub,2013-07-05 03:05:00,
2013-07-04 22:11:00,72.3,59.0,29.93,North,-999,-999.0,-999.0,63,-99.99,,,-99.99,meteohub,2013-07-05 03:11:00,
2013-07-04 22:20:00,72.1,59.4,29.93,North,-999,-999.0,-999.0,64,-99.99,,,-99.99,meteohub,2013-07-05 03:20:00,
2013-07-04 22:26:00,72.0,59.2,29.93,North,-999,-999.0,-999.0,64,-99.99,,,-99.99,meteohub,2013-07-05 03:26:00,
2013-07-04 22:35:00,71.6,59.2,29.93,North,-999,-999.0,-999.0,65,-99.99,,,-99.99,meteohub,2013-07-05 03:35:00,
2013-07-04 22:41:00,71.6,59.2,29.93,North,-999,-999.0,-999.0,65,-99.99,,,-99.99,meteohub,2013-07-05 03:41:00,
2013-07-04 22:47:00,71.6,59.7,29.94,North,-999,-999.0,-999.0,66,-99.99,,,-99.99,meteohub,2013-07-05 03:47:00,
2013-07-04 22:52:00,71.4,59.5,29.93,North,-999,-999.0,-999.0,66,-99.99,,,-99.99,meteohub,2013-07-05 03:52:00,
2013-07-04 22:57:00,71.6,59.7,29.93,North,-999,-999.0,-999.0,66,-99.99,,,-99.99,meteohub,2013-07-05 03:57:00,
2013-07-04 23:02:00,71.4,59.9,29.93,North,-999,-999.0,-999.0,67,-99.99,,,-99.99,meteohub,2013-07-05 04:02:00,
2013-07-04 23:09:00,71.4,59.9,29.93,North,-999,-999.0,-999.0,67,-99.99,,,-99.99,meteohub,2013-07-05 04:09:00,
2013-07-04 23:15:00,71.2,60.1,29.93,North,-999,-999.0,-999.0,68,-99.99,,,-99.99,meteohub,2013-07-05 04:15:00,
2013-07-04 23:18:00,71.2,60.1,29.94,North,-999,-999.0,-999.0,68,-99.99,,,-99.99,meteohub,2013-07-05 04:18:00,
2013-07-04 23:22:00,71.1,60.4,29.94,North,-999,-999.0,-999.0,69,-99.99,,,-99.99,meteohub,2013-07-05 04:22:00,
2013-07-04 23:27:00,71.1,60.4,29.93,North,-999,-999.0,-999.0,69,-99.99,,,-99.99,meteohub,2013-07-05 04:27:00,
2013-07-04 23:32:00,70.9,60.6,29.94,North,-999,-999.0,-999.0,70,-99.99,,,-99.99,meteohub,2013-07-05 04:32:00,
2013-07-04 23:37:00,70.7,60.4,29.94,North,-999,-999.0,-999.0,70,-99.99,,,-99.99,meteohub,2013-07-05 04:37:00,
2013-07-04 23:42:00,70.5,60.6,29.93,North,-999,-999.0,-999.0,71,-99.99,,,-99.99,meteohub,2013-07-05 04:42:00,
2013-07-04 23:47:00,70.5,60.6,29.93,North,-999,-999.0,-999.0,71,-99.99,,,-99.99,meteohub,2013-07-05 04:47:00,
2013-07-04 23:52:00,70.3,60.8,29.93,North,-999,-999.0,-999.0,72,-99.99,,,-99.99,meteohub,2013-07-05 04:52:00,
2013-07-04 23:57:00,70.2,60.6,29.93,North,-999,-999.0,-999.0,72,-99.99,,,-99.99,meteohub,2013-07-05 04:57:00,